Location: Aldenham
(51.6667°N, 0.3500°W)
Time: 06:56:02
(UTC+00:00)

Tiangong - Visible Passes

Search period start: 20 January 2026 00:00
Search period end: 30 January 2026 00:00
Orbit: 378 x 393 km, 41.5° (Epoch: 19 January)

Date Brightness Start Highest point End Pass type
(mag) Time Alt. Az. Time Alt. Az. Time Alt. Az.
20 Jan 0.8 06:26:11 10° S 06:27:23 12° SSE 06:28:37 10° SE visible
21 Jan 0.6 07:02:36 10° SSW 07:04:19 14° S 07:06:02 10° SSE visible
22 Jan 0.6 06:03:33 10° SSW 06:05:09 13° S 06:06:45 10° SE visible
23 Jan 1.0 05:06:56 11° SSE 05:06:56 11° SSE 05:07:10 10° SSE visible
23 Jan 0.5 06:40:26 10° SW 06:42:01 13° S 06:43:36 10° SSE visible
24 Jan 0.4 05:42:30 13° S 05:42:47 14° S 05:44:28 10° SSE visible
25 Jan 0.5 06:18:25 10° SSW 06:19:33 11° SSW 06:20:41 10° S visible
26 Jan 0.7 05:21:16 12° SSE 05:21:16 12° SSE 05:21:48 10° SSE visible
